| time (UTC) | temp F | wind direction | speed knots | gust knots | rain 1hr in | rain 24hr in | rain mn in | humidity % | barometer mb |
| 20260901153040 | 82 | 207 | 5.2 | 8.7 | 0.00 | 0.01 | 0.01 | 79 | 1016.4 |
| 20260901152603 | 81 | 174 | 6.1 | 8.7 | 0.01 | 0.01 | 0.01 | 80 | 1016.5 |
| 20260901152041 | 81 | 192 | 7.0 | 7.8 | 0.01 | 0.01 | 0.01 | 80 | 1016.5 |
| 20260901151539 | 81 | 178 | 5.2 | 7.8 | 0.01 | 0.01 | 0.01 | 81 | 1016.5 |
| 20260901151038 | 80 | 190 | 3.5 | 7.0 | 0.01 | 0.01 | 0.01 | 82 | 1016.6 |
| 20260901150536 | 80 | 189 | 4.3 | 6.1 | 0.01 | 0.01 | 0.01 | 83 | 1016.5 |
| 20260901150035 | 80 | 161 | 3.5 | 7.0 | 0.01 | 0.01 | 0.01 | 85 | 1016.6 |
| 20260901145537 | 80 | 170 | 5.2 | 7.8 | 0.01 | 0.01 | 0.01 | 84 | 1016.6 |
| 20260901145101 | 79 | 163 | 4.3 | 7.8 | 0.01 | 0.01 | 0.01 | 83 | 1016.5 |
| 20260901144537 | 80 | 144 | 5.2 | 7.8 | 0.01 | 0.01 | 0.01 | 82 | 1016.5 |
| 20260901144036 | 80 | 153 | 6.1 | 7.8 | 0.01 | 0.01 | 0.01 | 81 | 1016.6 |
| 20260901143534 | 81 | 168 | 6.1 | 9.6 | 0.01 | 0.01 | 0.01 | 81 | 1016.8 |
| 20260901143033 | 81 | 157 | 7.0 | 9.6 | 0.01 | 0.01 | 0.01 | 80 | 1016.8 |
| 20260901142530 | 81 | 164 | 5.2 | 7.8 | 0.00 | 0.00 | 0.00 | 77 | 1017.0 |
| 20260901142031 | 81 | 159 | 5.2 | 7.0 | 0.00 | 0.00 | 0.00 | 78 | 1016.9 |
| 20260901141526 | 81 | 151 | 5.2 | 8.7 | 0.00 | 0.00 | 0.00 | 78 | 1016.9 |
| 20260901141026 | 81 | 165 | 5.2 | 8.7 | 0.00 | 0.00 | 0.00 | 78 | 1016.9 |
| 20260901140537 | 81 | 192 | 4.3 | 8.7 | 0.00 | 0.00 | 0.00 | 78 | 1016.8 |
| 20260901140103 | 81 | 166 | 7.0 | 9.6 | 0.00 | 0.00 | 0.00 | 78 | 1016.8 |
| 20260901135538 | 80 | 184 | 6.1 | 7.8 | 0.00 | 0.00 | 0.00 | 78 | 1016.8 |
| 20260901135037 | 80 | 181 | 6.1 | 8.7 | 0.00 | 0.00 | 0.00 | 79 | 1016.8 |
| 20260901134535 | 80 | 175 | 6.1 | 9.6 | 0.00 | 0.00 | 0.00 | 79 | 1016.7 |
| 20260901134034 | 80 | 184 | 6.1 | 8.7 | 0.00 | 0.00 | 0.00 | 79 | 1016.8 |
| 20260901133531 | 80 | 154 | 5.2 | 8.7 | 0.00 | 0.00 | 0.00 | 79 | 1016.8 |
| 20260901133054 | 80 | 140 | 4.3 | 7.0 | 0.00 | 0.00 | 0.00 | 79 | 1016.8 |
| 20260901132554 | 80 | 160 | 4.3 | 7.0 | 0.00 | 0.00 | 0.00 | 80 | 1016.9 |
| 20260901132036 | 80 | 148 | 4.3 | 7.8 | 0.00 | 0.00 | 0.00 | 80 | 1016.9 |
| 20260901131534 | 80 | 134 | 4.3 | 9.6 | 0.00 | 0.00 | 0.00 | 80 | 1017.0 |
| 20260901131033 | 79 | 186 | 4.3 | 9.6 | 0.00 | 0.00 | 0.00 | 80 | 1017.0 |
| 20260901130531 | 79 | 191 | 6.1 | 9.6 | 0.00 | 0.00 | 0.00 | 81 | 1017.1 |
| 20260901130030 | 78 | 169 | 7.0 | 9.6 | 0.00 | 0.00 | 0.00 | 82 | 1017.1 |
| 20260901125529 | 78 | 163 | 7.8 | 12.2 | 0.00 | 0.00 | 0.00 | 83 | 1017.2 |
| 20260901125029 | 77 | 149 | 7.0 | 10.4 | 0.00 | 0.00 | 0.00 | 83 | 1017.2 |
| 20260901124527 | 77 | 172 | 7.0 | 9.6 | 0.00 | 0.00 | 0.00 | 84 | 1017.3 |
| 20260901124046 | 77 | 173 | 7.8 | 9.6 | 0.00 | 0.00 | 0.00 | 85 | 1017.2 |
| 20260901123543 | 76 | 173 | 7.0 | 9.6 | 0.00 | 0.00 | 0.00 | 85 | 1017.2 |
| 20260901123042 | 76 | 158 | 5.2 | 8.7 | 0.00 | 0.00 | 0.00 | 86 | 1017.2 |
| 20260901122539 | 76 | 138 | 4.3 | 7.8 | 0.00 | 0.00 | 0.00 | 87 | 1017.3 |
| 20260901122038 | 75 | 150 | 5.2 | 7.8 | 0.00 | 0.00 | 0.00 | 87 | 1017.2 |
| 20260901121536 | 75 | 164 | 5.2 | 8.7 | 0.00 | 0.00 | 0.00 | 88 | 1017.1 |
| 20260901121035 | 75 | 164 | 4.3 | 7.0 | 0.00 | 0.00 | 0.00 | 88 | 1017.2 |
| 20260901120536 | 75 | 158 | 4.3 | 7.8 | 0.00 | 0.00 | 0.00 | 88 | 1017.1 |
| 20260901120034 | 75 | 141 | 4.3 | 7.0 | 0.00 | 0.00 | 0.00 | 88 | 1017.1 |
| 20260901115532 | 75 | 147 | 3.5 | 6.1 | 0.00 | 0.00 | 0.00 | 88 | 1017.2 |
| 20260901115031 | 74 | 158 | 3.5 | 6.1 | 0.00 | 0.00 | 0.00 | 88 | 1017.2 |
| 20260901114528 | 74 | 141 | 2.6 | 4.3 | 0.00 | 0.00 | 0.00 | 88 | 1017.1 |
| 20260901114027 | 74 | 153 | 3.5 | 7.0 | 0.00 | 0.00 | 0.00 | 88 | 1017.2 |
| 20260901113524 | 74 | 149 | 4.3 | 7.0 | 0.00 | 0.00 | 0.00 | 88 | 1017.2 |
| 20260901113043 | 74 | 156 | 2.6 | 6.1 | 0.00 | 0.00 | 0.00 | 89 | 1017.2 |
| 20260901112540 | 74 | 165 | 3.5 | 5.2 | 0.00 | 0.00 | 0.00 | 89 | 1017.2 |
| 20260901112041 | 74 | 149 | 3.5 | 5.2 | 0.00 | 0.00 | 0.00 | 89 | 1017.2 |
| 20260901111538 | 74 | 165 | 2.6 | 6.1 | 0.00 | 0.00 | 0.00 | 89 | 1017.2 |
| 20260901111037 | 74 | 154 | 3.5 | 6.1 | 0.00 | 0.00 | 0.00 | 89 | 1017.0 |
| 20260901110559 | 74 | 145 | 1.7 | 6.1 | 0.00 | 0.00 | 0.00 | 89 | 1017.0 |
| 20260901110037 | 74 | 150 | 1.7 | 6.1 | 0.00 | 0.00 | 0.00 | 89 | 1017.0 |
| 20260901105533 | 74 | 156 | 3.5 | 6.1 | 0.00 | 0.00 | 0.00 | 89 | 1016.8 |
| 20260901105056 | 74 | 152 | 2.6 | 4.3 | 0.00 | 0.00 | 0.00 | 89 | 1016.9 |
| 20260901104536 | 74 | 137 | 1.7 | 3.5 | 0.00 | 0.00 | 0.00 | 89 | 1017.0 |
| 20260901104036 | 74 | 137 | 1.7 | 3.5 | 0.00 | 0.00 | 0.00 | 89 | 1016.9 |
| 20260901103533 | 74 | 160 | 2.6 | 6.1 | 0.00 | 0.00 | 0.00 | 89 | 1016.9 |
| 20260901103057 | 74 | 165 | 2.6 | 6.1 | 0.00 | 0.00 | 0.00 | 89 | 1016.9 |
| 20260901102533 | 74 | 150 | 1.7 | 4.3 | 0.00 | 0.00 | 0.00 | 89 | 1016.9 |
| 20260901102034 | 74 | 124 | 2.6 | 4.3 | 0.00 | 0.00 | 0.00 | 89 | 1016.8 |
| 20260901101530 | 74 | 101 | 2.6 | 6.1 | 0.00 | 0.00 | 0.00 | 89 | 1016.8 |
| 20260901101049 | 74 | 134 | 2.6 | 6.1 | 0.00 | 0.00 | 0.00 | 89 | 1016.7 |
| 20260901100545 | 74 | 142 | 3.5 | 6.1 | 0.00 | 0.00 | 0.00 | 89 | 1016.7 |
| 20260901100025 | 75 | 134 | 2.6 | 6.1 | 0.00 | 0.00 | 0.00 | 89 | 1016.7 |
| 20260901095542 | 74 | 153 | 3.5 | 6.1 | 0.00 | 0.00 | 0.00 | 89 | 1016.7 |
| 20260901095042 | 74 | 152 | 4.3 | 6.1 | 0.00 | 0.00 | 0.00 | 89 | 1016.7 |
| 20260901094540 | 75 | 136 | 4.3 | 7.0 | 0.00 | 0.00 | 0.00 | 88 | 1016.8 |
| 20260901094103 | 75 | 147 | 4.3 | 7.0 | 0.00 | 0.00 | 0.00 | 88 | 1016.8 |
| 20260901093538 | 75 | 141 | 4.3 | 6.1 | 0.00 | 0.00 | 0.00 | 89 | 1016.8 |
| 20260901093102 | 75 | 141 | 3.5 | 6.1 | 0.00 | 0.00 | 0.00 | 89 | 1016.8 |
| 20260901092538 | 74 | 140 | 2.6 | 5.2 | 0.00 | 0.00 | 0.00 | 89 | 1016.9 |
| 20260901092036 | 74 | 149 | 2.6 | 4.3 | 0.00 | 0.00 | 0.00 | 89 | 1016.9 |
| 20260901091533 | 74 | 140 | 2.6 | 4.3 | 0.00 | 0.00 | 0.00 | 88 | 1016.9 |
| 20260901091056 | 74 | 169 | 1.7 | 6.1 | 0.00 | 0.00 | 0.00 | 88 | 1017.0 |
| 20260901090536 | 74 | 139 | 3.5 | 6.1 | 0.00 | 0.00 | 0.00 | 89 | 1016.9 |
| 20260901090035 | 74 | 158 | 2.6 | 4.3 | 0.00 | 0.00 | 0.00 | 89 | 1016.9 |
| 20260901085558 | 74 | 167 | 3.5 | 4.3 | 0.00 | 0.00 | 0.00 | 89 | 1016.8 |
| 20260901085036 | 74 | 187 | 1.7 | 3.5 | 0.00 | 0.00 | 0.00 | 89 | 1016.8 |
| 20260901084559 | 74 | 149 | 0.9 | 5.2 | 0.00 | 0.00 | 0.00 | 89 | 1016.8 |
| 20260901084036 | 74 | 149 | 1.7 | 5.2 | 0.00 | 0.00 | 0.00 | 89 | 1016.9 |
| 20260901083534 | 74 | 149 | 2.6 | 5.2 | 0.00 | 0.00 | 0.00 | 89 | 1016.8 |
| 20260901083033 | 74 | 170 | 3.5 | 5.2 | 0.00 | 0.00 | 0.00 | 89 | 1016.8 |
| 20260901082530 | 74 | 169 | 3.5 | 4.3 | 0.00 | 0.00 | 0.00 | 89 | 1016.8 |
| 20260901082030 | 74 | 159 | 3.5 | 6.1 | 0.00 | 0.00 | 0.00 | 89 | 1016.7 |
| 20260901081525 | 74 | 159 | 3.5 | 6.1 | 0.00 | 0.00 | 0.00 | 89 | 1016.9 |
| 20260901081044 | 74 | 159 | 1.7 | 4.3 | 0.00 | 0.00 | 0.00 | 89 | 1017.0 |
| 20260901080541 | 74 | 148 | 2.6 | 4.3 | 0.00 | 0.00 | 0.00 | 89 | 1017.0 |
| 20260901080041 | 74 | 169 | 3.5 | 4.3 | 0.00 | 0.00 | 0.00 | 89 | 1017.0 |
| 20260901075537 | 74 | 151 | 3.5 | 5.2 | 0.00 | 0.00 | 0.00 | 89 | 1017.0 |
| 20260901075037 | 74 | 169 | 1.7 | 4.3 | 0.00 | 0.00 | 0.00 | 89 | 1017.0 |
| 20260901074539 | 74 | 169 | 1.7 | 4.3 | 0.00 | 0.00 | 0.00 | 89 | 1017.1 |
| 20260901074038 | 74 | 169 | 1.7 | 3.5 | 0.00 | 0.00 | 0.00 | 89 | 1017.1 |
| 20260901073533 | 74 | 169 | 1.7 | 3.5 | 0.00 | 0.00 | 0.00 | 89 | 1017.1 |
| 20260901073032 | 74 | 169 | 0.0 | 2.6 | 0.00 | 0.00 | 0.00 | 89 | 1017.0 |
| 20260901072529 | 74 | 169 | 0.9 | 2.6 | 0.00 | 0.00 | 0.00 | 89 | 1017.0 |
| 20260901072033 | 74 | 169 | 0.9 | 2.6 | 0.00 | 0.00 | 0.00 | 89 | 1017.0 |
| 20260901071556 | 74 | 169 | 1.7 | 2.6 | 0.00 | 0.00 | 0.00 | 89 | 1017.0 |
| 20260901071033 | 73 | 169 | 0.9 | 3.5 | 0.00 | 0.00 | 0.00 | 89 | 1016.9 |
| 20260901070528 | 73 | 169 | 1.7 | 1.7 | 0.00 | 0.00 | 0.00 | 89 | 1016.9 |
| 20260901070027 | 73 | 169 | 0.9 | 2.6 | 0.00 | 0.00 | 0.00 | 89 | 1016.9 |
| 20260901065544 | 73 | 169 | 1.7 | 2.6 | 0.00 | 0.00 | 0.00 | 89 | 1016.9 |
| 20260901065040 | 73 | 169 | 1.7 | 2.6 | 0.00 | 0.00 | 0.00 | 89 | 1016.9 |
| 20260901064536 | 73 | 169 | 2.6 | 3.5 | 0.00 | 0.00 | 0.00 | 89 | 1017.0 |
| 20260901064035 | 73 | 174 | 2.6 | 3.5 | 0.00 | 0.00 | 0.00 | 89 | 1017.0 |
| 20260901063533 | 73 | 164 | 2.6 | 4.3 | 0.00 | 0.00 | 0.00 | 89 | 1017.0 |
| 20260901063032 | 73 | 159 | 2.6 | 4.3 | 0.00 | 0.00 | 0.00 | 88 | 1017.0 |
| 20260901062529 | 73 | 192 | 2.6 | 3.5 | 0.00 | 0.00 | 0.00 | 88 | 1017.1 |
| 20260901062033 | 73 | 192 | 0.0 | 0.0 | 0.00 | 0.00 | 0.00 | 88 | 1017.2 |
| 20260901061531 | 73 | 192 | 0.0 | 0.0 | 0.00 | 0.00 | 0.00 | 88 | 1017.3 |
| 20260901061033 | 73 | 192 | 0.0 | 0.0 | 0.00 | 0.00 | 0.00 | 87 | 1017.3 |
| 20260901060550 | 73 | 192 | 0.0 | 0.0 | 0.00 | 0.00 | 0.00 | 87 | 1017.5 |
| 20260901060028 | 73 | 192 | 0.0 | 0.0 | 0.00 | 0.00 | 0.00 | 87 | 1017.4 |
| 20260901055543 | 73 | 192 | 0.0 | 0.0 | 0.00 | 0.00 | 0.00 | 87 | 1017.5 |
| 20260901055041 | 74 | 192 | 0.0 | 0.0 | 0.00 | 0.00 | 0.00 | 87 | 1017.6 |
| 20260901054538 | 73 | 192 | 0.0 | 0.0 | 0.00 | 0.00 | 0.00 | 87 | 1017.7 |
| 20260901054037 | 74 | 192 | 0.0 | 0.0 | 0.00 | 0.00 | 0.00 | 87 | 1017.8 |
| 20260901053534 | 74 | 192 | 0.0 | 0.0 | 0.00 | 0.00 | 0.00 | 87 | 1017.8 |
| 20260901053058 | 74 | 192 | 0.0 | 0.0 | 0.00 | 0.00 | 0.00 | 87 | 1017.8 |
| 20260901052534 | 73 | 192 | 0.0 | 0.0 | 0.00 | 0.00 | 0.00 | 87 | 1017.9 |
| 20260901052032 | 74 | 192 | 0.0 | 0.0 | 0.00 | 0.00 | 0.00 | 87 | 1018.0 |
| 20260901051549 | 74 | 192 | 0.0 | 0.0 | 0.00 | 0.00 | 0.00 | 87 | 1017.9 |
| 20260901051028 | 74 | 192 | 0.0 | 0.0 | 0.00 | 0.00 | 0.00 | 86 | 1017.8 |
| 20260901050543 | 74 | 192 | 0.0 | 0.0 | 0.00 | 0.00 | 0.00 | 86 | 1017.7 |
| 20260901050042 | 74 | 192 | 0.0 | 0.0 | 0.00 | 0.00 | 0.00 | 86 | 1017.7 |
| 20260901045539 | 74 | 192 | 0.0 | 0.0 | 0.00 | 0.00 | 0.00 | 87 | 1017.7 |
| 20260901045038 | 74 | 192 | 0.0 | 0.0 | 0.00 | 0.00 | 0.00 | 86 | 1017.7 |
| 20260901044539 | 74 | 192 | 0.0 | 1.7 | 0.00 | 0.00 | 0.00 | 86 | 1017.7 |
| 20260901044103 | 74 | 192 | 0.9 | 1.7 | 0.00 | 0.00 | 0.00 | 87 | 1017.8 |
| 20260901043539 | 74 | 192 | 0.0 | 1.7 | 0.00 | 0.00 | 0.00 | 86 | 1017.8 |
| 20260901043037 | 74 | 192 | 0.0 | 1.7 | 0.00 | 0.00 | 0.00 | 86 | 1017.8 |
| 20260901042536 | 74 | 192 | 0.0 | 1.7 | 0.00 | 0.00 | 0.00 | 86 | 1017.7 |
| 20260901042034 | 74 | 192 | 0.0 | 1.7 | 0.00 | 0.00 | 0.00 | 86 | 1017.8 |
| 20260901041556 | 74 | 192 | 0.9 | 2.6 | 0.00 | 0.00 | 0.00 | 86 | 1017.9 |
| 20260901041034 | 74 | 192 | 1.7 | 2.6 | 0.00 | 0.00 | 0.00 | 86 | 1017.8 |
| 20260901040532 | 74 | 192 | 1.7 | 2.6 | 0.00 | 0.00 | 0.00 | 86 | 1018.0 |
| 20260901040050 | 74 | 192 | 0.9 | 2.6 | 0.00 | 0.00 | 0.00 | 85 | 1018.0 |
| 20260901035541 | 74 | 192 | 1.7 | 2.6 | 0.00 | 0.00 | 0.00 | 85 | 1018.0 |
| 20260901035039 | 74 | 192 | 0.9 | 2.6 | 0.00 | 0.00 | 0.00 | 85 | 1018.1 |
| 20260901034537 | 74 | 192 | 0.9 | 2.6 | 0.00 | 0.00 | 0.00 | 85 | 1018.1 |
| 20260901034036 | 75 | 192 | 1.7 | 2.6 | 0.00 | 0.00 | 0.00 | 85 | 1018.1 |
| 20260901033534 | 75 | 192 | 1.7 | 3.5 | 0.00 | 0.00 | 0.00 | 85 | 1018.0 |
| 20260901033033 | 75 | 192 | 1.7 | 3.5 | 0.00 | 0.00 | 0.00 | 85 | 1018.1 |
| 20260901032530 | 75 | 192 | 2.6 | 3.5 | 0.00 | 0.00 | 0.00 | 85 | 1018.1 |
| 20260901032049 | 75 | 192 | 1.7 | 3.5 | 0.00 | 0.00 | 0.00 | 84 | 1018.1 |
| 20260901031529 | 75 | 192 | 1.7 | 2.6 | 0.00 | 0.00 | 0.00 | 83 | 1018.1 |
| 20260901031028 | 75 | 192 | 0.9 | 3.5 | 0.00 | 0.00 | 0.00 | 83 | 1018.2 |
| 20260901030524 | 75 | 192 | 1.7 | 3.5 | 0.00 | 0.00 | 0.00 | 83 | 1018.3 |
| 20260901030044 | 75 | 192 | 1.7 | 2.6 | 0.00 | 0.00 | 0.00 | 82 | 1018.3 |
| 20260901025539 | 75 | 192 | 0.9 | 2.6 | 0.00 | 0.00 | 0.00 | 81 | 1018.4 |
| 20260901025038 | 75 | 192 | 0.9 | 1.7 | 0.00 | 0.00 | 0.00 | 81 | 1018.5 |
| 20260901024536 | 75 | 192 | 0.9 | 2.6 | 0.00 | 0.00 | 0.00 | 80 | 1018.5 |
| 20260901024101 | 75 | 192 | 0.9 | 2.6 | 0.00 | 0.00 | 0.00 | 80 | 1018.5 |
| 20260901023538 | 75 | 192 | 1.7 | 2.6 | 0.00 | 0.00 | 0.00 | 80 | 1018.6 |
| 20260901023036 | 75 | 192 | 0.0 | 0.0 | 0.00 | 0.00 | 0.00 | 80 | 1018.6 |
| 20260901022534 | 75 | 192 | 0.0 | 0.0 | 0.00 | 0.00 | 0.00 | 80 | 1018.7 |
| 20260901022033 | 75 | 192 | 0.0 | 0.0 | 0.00 | 0.00 | 0.00 | 79 | 1018.7 |
| 20260901021556 | 76 | 192 | 0.0 | 0.0 | 0.00 | 0.00 | 0.00 | 79 | 1018.7 |
| 20260901021033 | 76 | 192 | 0.0 | 0.0 | 0.00 | 0.00 | 0.00 | 79 | 1018.7 |
| 20260901020530 | 76 | 192 | 0.0 | 0.0 | 0.00 | 0.00 | 0.00 | 79 | 1018.7 |
| 20260901020030 | 76 | 192 | 0.0 | 0.0 | 0.00 | 0.00 | 0.00 | 79 | 1018.6 |
| 20260901015552 | 76 | 192 | 0.0 | 0.0 | 0.00 | 0.00 | 0.00 | 78 | 1018.6 |
| 20260901015055 | 76 | 192 | 0.0 | 1.7 | 0.00 | 0.00 | 0.00 | 78 | 1018.6 |
| 20260901014535 | 76 | 192 | 0.0 | 2.6 | 0.00 | 0.00 | 0.00 | 78 | 1018.6 |
| 20260901014035 | 76 | 192 | 0.9 | 3.5 | 0.00 | 0.00 | 0.00 | 77 | 1018.6 |
| 20260901013532 | 76 | 192 | 1.7 | 3.5 | 0.00 | 0.00 | 0.00 | 77 | 1018.4 |
| 20260901013031 | 76 | 192 | 0.0 | 0.9 | 0.00 | 0.00 | 0.00 | 78 | 1018.4 |
| 20260901012528 | 76 | 192 | 0.0 | 1.7 | 0.00 | 0.00 | 0.00 | 79 | 1018.3 |
| 20260901012027 | 76 | 192 | 0.9 | 2.6 | 0.00 | 0.00 | 0.00 | 78 | 1018.2 |
| 20260901011544 | 76 | 192 | 0.9 | 2.6 | 0.00 | 0.00 | 0.00 | 79 | 1018.1 |
| 20260901011044 | 76 | 192 | 1.7 | 2.6 | 0.00 | 0.00 | 0.00 | 79 | 1018.2 |
| 20260901010541 | 76 | 192 | 1.7 | 2.6 | 0.00 | 0.00 | 0.00 | 79 | 1018.1 |
| 20260901010041 | 76 | 192 | 0.0 | 0.0 | 0.00 | 0.00 | 0.00 | 78 | 1018.1 |
| 20260901005537 | 76 | 192 | 0.0 | 0.0 | 0.00 | 0.00 | 0.00 | 78 | 1018.0 |
| 20260901005036 | 76 | 192 | 0.0 | 0.0 | 0.00 | 0.00 | 0.00 | 79 | 1017.9 |
| 20260901004533 | 76 | 192 | 0.0 | 2.6 | 0.00 | 0.00 | 0.00 | 79 | 1018.0 |
| 20260901004032 | 76 | 192 | 0.9 | 3.5 | 0.00 | 0.00 | 0.00 | 78 | 1017.8 |
| 20260901003534 | 77 | 192 | 1.7 | 3.5 | 0.00 | 0.00 | 0.00 | 79 | 1017.6 |
| 20260901003030 | 77 | 192 | 0.9 | 3.5 | 0.00 | 0.00 | 0.00 | 80 | 1017.7 |
| 20260901002548 | 77 | 192 | 1.7 | 6.1 | 0.00 | 0.00 | 0.00 | 79 | 1017.6 |
| 20260901002026 | 77 | 192 | 1.7 | 6.1 | 0.00 | 0.00 | 0.00 | 80 | 1017.6 |
| 20260901001543 | 78 | 184 | 1.7 | 4.3 | 0.00 | 0.00 | 0.00 | 81 | 1017.7 |
| 20260901001043 | 78 | 166 | 3.5 | 5.2 | 0.00 | 0.00 | 0.00 | 81 | 1017.7 |
| 20260901000541 | 78 | 174 | 4.3 | 4.3 | 0.00 | 0.00 | 0.00 | 81 | 1017.7 |
| 20260901000037 | 79 | 190 | 1.7 | 4.3 | 0.00 | 0.00 | 0.00 | 81 | 1017.7 |
| 20260831235534 | 79 | 159 | 2.6 | 4.3 | 0.00 | 0.00 | 0.00 | 80 | 1017.6 |
| 20260831235033 | 79 | 139 | 0.0 | 2.6 | 0.00 | 0.00 | 0.00 | 80 | 1017.6 |
| 20260831234549 | 79 | 139 | 0.0 | 2.6 | 0.00 | 0.00 | 0.00 | 80 | 1017.6 |
| 20260831234027 | 79 | 139 | 0.9 | 3.5 | 0.00 | 0.00 | 0.00 | 80 | 1017.7 |
| 20260831233524 | 79 | 139 | 1.7 | 3.5 | 0.00 | 0.00 | 0.00 | 80 | 1017.6 |
| 20260831233042 | 79 | 139 | 1.7 | 4.3 | 0.00 | 0.00 | 0.00 | 80 | 1017.6 |
| 20260831232540 | 79 | 139 | 2.6 | 4.3 | 0.00 | 0.00 | 0.00 | 79 | 1017.7 |
| 20260831232039 | 80 | 148 | 3.5 | 6.1 | 0.00 | 0.00 | 0.00 | 79 | 1017.7 |
| 20260831231536 | 80 | 149 | 2.6 | 6.1 | 0.00 | 0.00 | 0.00 | 79 | 1017.8 |
| 20260831231035 | 80 | 178 | 3.5 | 5.2 | 0.00 | 0.00 | 0.00 | 79 | 1018.0 |
| 20260831230536 | 80 | 173 | 2.6 | 5.2 | 0.00 | 0.00 | 0.00 | 79 | 1018.0 |
| 20260831225537 | 80 | 183 | 2.6 | 3.5 | 0.00 | 0.00 | 0.00 | 78 | 1018.1 |
| 20260831225037 | 80 | 192 | 1.7 | 3.5 | 0.00 | 0.00 | 0.00 | 78 | 1018.1 |
| 20260831224532 | 80 | 192 | 1.7 | 3.5 | 0.00 | 0.00 | 0.00 | 77 | 1018.0 |
| 20260831224031 | 80 | 173 | 2.6 | 7.0 | 0.00 | 0.00 | 0.00 | 77 | 1018.0 |
| 20260831223528 | 80 | 132 | 3.5 | 7.0 | 0.00 | 0.00 | 0.00 | 77 | 1017.8 |
| 20260831223049 | 81 | 140 | 4.3 | 6.1 | 0.00 | 0.00 | 0.00 | 77 | 1017.9 |
| 20260831222543 | 81 | 165 | 3.5 | 5.2 | 0.00 | 0.00 | 0.00 | 76 | 1018.1 |
| 20260831222041 | 81 | 192 | 3.5 | 4.3 | 0.00 | 0.00 | 0.00 | 75 | 1018.3 |
| 20260831221539 | 81 | 188 | 3.5 | 6.1 | 0.00 | 0.00 | 0.00 | 76 | 1018.2 |
| 20260831221038 | 82 | 167 | 3.5 | 6.1 | 0.00 | 0.00 | 0.00 | 76 | 1018.2 |
| 20260831220534 | 82 | 132 | 3.5 | 6.1 | 0.00 | 0.00 | 0.00 | 75 | 1018.2 |
| 20260831220034 | 82 | 126 | 2.6 | 3.5 | 0.00 | 0.00 | 0.00 | 75 | 1018.2 |
| 20260831215530 | 82 | 126 | 0.9 | 3.5 | 0.00 | 0.00 | 0.00 | 75 | 1018.3 |
| 20260831215030 | 82 | 126 | 1.7 | 3.5 | 0.00 | 0.00 | 0.00 | 75 | 1018.3 |
| 20260831214553 | 82 | 126 | 0.9 | 3.5 | 0.00 | 0.00 | 0.00 | 74 | 1018.2 |
| 20260831214035 | 82 | 126 | 1.7 | 4.3 | 0.00 | 0.00 | 0.00 | 75 | 1018.2 |
| 20260831213533 | 82 | 177 | 2.6 | 4.3 | 0.00 | 0.00 | 0.00 | 73 | 1018.4 |
| 20260831213033 | 82 | 200 | 1.7 | 5.2 | 0.00 | 0.00 | 0.00 | 73 | 1018.4 |
| 20260831212531 | 82 | 197 | 1.7 | 5.2 | 0.00 | 0.00 | 0.00 | 73 | 1018.4 |
| 20260831212056 | 82 | 150 | 2.6 | 4.3 | 0.00 | 0.00 | 0.00 | 72 | 1018.5 |
| 20260831211556 | 81 | 153 | 2.6 | 5.2 | 0.00 | 0.00 | 0.00 | 73 | 1018.5 |
| 20260831211033 | 81 | 169 | 3.5 | 3.5 | 0.00 | 0.00 | 0.00 | 74 | 1018.5 |
| 20260831210531 | 81 | 140 | 1.7 | 2.6 | 0.00 | 0.00 | 0.00 | 75 | 1018.6 |
| 20260831210031 | 81 | 205 | 0.9 | 2.6 | 0.00 | 0.00 | 0.00 | 77 | 1018.6 |
| 20260831205553 | 81 | 205 | 0.9 | 2.6 | 0.00 | 0.00 | 0.00 | 75 | 1018.7 |
| 20260831205031 | 81 | 205 | 1.7 | 3.5 | 0.00 | 0.00 | 0.00 | 75 | 1018.7 |
| 20260831204529 | 81 | 205 | 1.7 | 4.3 | 0.00 | 0.00 | 0.00 | 75 | 1018.7 |
| 20260831204028 | 82 | 195 | 1.7 | 6.1 | 0.00 | 0.00 | 0.00 | 74 | 1018.7 |
| 20260831203525 | 82 | 194 | 2.6 | 6.1 | 0.00 | 0.00 | 0.00 | 72 | 1018.7 |
| 20260831203025 | 83 | 191 | 4.3 | 5.2 | 0.00 | 0.00 | 0.00 | 70 | 1018.6 |
| 20260831202541 | 83 | 195 | 3.5 | 6.1 | 0.00 | 0.00 | 0.00 | 67 | 1018.7 |
| 20260831202040 | 83 | 153 | 2.6 | 6.1 | 0.00 | 0.00 | 0.00 | 68 | 1018.8 |
| 20260831201542 | 84 | 123 | 3.5 | 7.8 | 0.00 | 0.00 | 0.00 | 67 | 1018.8 |
| 20260831201041 | 84 | 182 | 5.2 | 7.8 | 0.00 | 0.00 | 0.00 | 66 | 1018.9 |
| 20260831200539 | 84 | 156 | 5.2 | 7.0 | 0.00 | 0.00 | 0.00 | 66 | 1018.9 |
| 20260831200036 | 84 | 189 | 5.2 | 7.0 | 0.00 | 0.00 | 0.00 | 65 | 1018.8 |
| 20260831195534 | 84 | 169 | 4.3 | 7.0 | 0.00 | 0.00 | 0.00 | 64 | 1018.9 |
| 20260831195034 | 84 | 180 | 2.6 | 8.7 | 0.00 | 0.00 | 0.00 | 64 | 1018.9 |
| 20260831194532 | 85 | 188 | 3.5 | 8.7 | 0.00 | 0.00 | 0.00 | 64 | 1019.0 |
| 20260831194032 | 85 | 184 | 4.3 | 8.7 | 0.00 | 0.00 | 0.00 | 63 | 1019.0 |
| 20260831193529 | 85 | 194 | 5.2 | 7.8 | 0.00 | 0.00 | 0.00 | 62 | 1019.0 |
| 20260831193029 | 85 | 188 | 3.5 | 8.7 | 0.00 | 0.00 | 0.00 | 62 | 1019.0 |
| 20260831192543 | 85 | 194 | 3.5 | 8.7 | 0.00 | 0.00 | 0.00 | 60 | 1019.0 |
| 20260831192043 | 86 | 176 | 3.5 | 7.0 | 0.00 | 0.00 | 0.00 | 62 | 1019.1 |
| 20260831191539 | 86 | 198 | 2.6 | 7.8 | 0.00 | 0.00 | 0.00 | 62 | 1019.1 |
| 20260831191038 | 86 | 168 | 3.5 | 6.1 | 0.00 | 0.00 | 0.00 | 60 | 1019.2 |
| 20260831190541 | 86 | 197 | 0.9 | 6.1 | 0.00 | 0.00 | 0.00 | 59 | 1019.4 |
| 20260831190039 | 87 | 223 | 2.6 | 9.6 | 0.00 | 0.00 | 0.00 | 60 | 1019.4 |
| 20260831185537 | 87 | 177 | 3.5 | 9.6 | 0.00 | 0.00 | 0.00 | 59 | 1019.3 |
| 20260831185035 | 87 | 229 | 1.7 | 7.0 | 0.00 | 0.00 | 0.00 | 61 | 1019.4 |
| 20260831184534 | 86 | 212 | 4.3 | 7.0 | 0.00 | 0.00 | 0.00 | 60 | 1019.4 |
| 20260831184032 | 85 | 154 | 4.3 | 10.4 | 0.00 | 0.00 | 0.00 | 61 | 1019.4 |
| 20260831183530 | 85 | 124 | 6.1 | 10.4 | 0.00 | 0.00 | 0.00 | 63 | 1019.4 |
| 20260831183049 | 84 | 181 | 6.1 | 9.6 | 0.00 | 0.00 | 0.00 | 63 | 1019.3 |
| 20260831182525 | 84 | 190 | 5.2 | 8.7 | 0.00 | 0.00 | 0.00 | 63 | 1019.4 |
| 20260831182045 | 84 | 154 | 4.3 | 8.7 | 0.00 | 0.00 | 0.00 | 63 | 1019.5 |
| 20260831181542 | 84 | 163 | 6.1 | 8.7 | 0.00 | 0.00 | 0.00 | 64 | 1019.6 |
| 20260831181041 | 84 | 189 | 5.2 | 7.0 | 0.00 | 0.00 | 0.00 | 64 | 1019.6 |
| 20260831180536 | 83 | 152 | 2.6 | 7.0 | 0.00 | 0.00 | 0.00 | 65 | 1019.5 |
| 20260831180036 | 83 | 186 | 3.5 | 7.0 | 0.00 | 0.00 | 0.00 | 64 | 1019.6 |
| 20260831175533 | 83 | 169 | 5.2 | 8.7 | 0.00 | 0.00 | 0.00 | 65 | 1019.6 |
| 20260831175035 | 83 | 166 | 6.1 | 8.7 | 0.00 | 0.00 | 0.00 | 65 | 1019.6 |
| 20260831174558 | 83 | 171 | 4.3 | 7.8 | 0.00 | 0.00 | 0.00 | 64 | 1019.8 |
| 20260831174041 | 83 | 187 | 2.6 | 6.1 | 0.00 | 0.00 | 0.00 | 65 | 1019.7 |
| 20260831173537 | 83 | 220 | 3.5 | 6.1 | 0.00 | 0.00 | 0.00 | 64 | 1019.8 |
| 20260831173037 | 83 | 188 | 2.6 | 7.0 | 0.00 | 0.00 | 0.00 | 64 | 1019.8 |
| 20260831172533 | 83 | 187 | 1.7 | 7.0 | 0.00 | 0.00 | 0.00 | 63 | 1019.8 |
| 20260831172033 | 83 | 184 | 1.7 | 7.0 | 0.00 | 0.00 | 0.00 | 65 | 1019.8 |
| 20260831171530 | 83 | 220 | 0.9 | 7.8 | 0.00 | 0.00 | 0.00 | 64 | 1019.8 |
| 20260831171055 | 83 | 201 | 3.5 | 7.8 | 0.00 | 0.00 | 0.00 | 63 | 1019.9 |
| 20260831170531 | 83 | 192 | 4.3 | 8.7 | 0.00 | 0.00 | 0.00 | 62 | 1019.8 |
| 20260831170031 | 84 | 245 | 2.6 | 6.1 | 0.00 | 0.00 | 0.00 | 64 | 1019.9 |
| 20260831165528 | 84 | 214 | 1.7 | 4.3 | 0.00 | 0.00 | 0.00 | 62 | 1019.9 |
| 20260831165053 | 84 | 190 | 1.7 | 7.0 | 0.00 | 0.00 | 0.00 | 62 | 1019.9 |
| 20260831164528 | 85 | 130 | 4.3 | 7.0 | 0.00 | 0.00 | 0.00 | 61 | 1019.9 |
| 20260831164054 | 85 | 175 | 3.5 | 5.2 | 0.00 | 0.00 | 0.00 | 62 | 1019.9 |
| 20260831163530 | 85 | 256 | 2.6 | 5.2 | 0.00 | 0.00 | 0.00 | 60 | 1020.0 |
| 20260831163031 | 85 | 250 | 1.7 | 7.8 | 0.00 | 0.00 | 0.00 | 62 | 1020.1 |
| 20260831162552 | 85 | 160 | 4.3 | 7.8 | 0.00 | 0.00 | 0.00 | 60 | 1020.1 |
| 20260831162030 | 85 | 238 | 2.6 | 5.2 | 0.00 | 0.00 | 0.00 | 62 | 1020.2 |
| 20260831161531 | 84 | 169 | 0.9 | 5.2 | 0.00 | 0.00 | 0.00 | 64 | 1020.3 |
| 20260831161030 | 83 | 214 | 2.6 | 5.2 | 0.00 | 0.00 | 0.00 | 64 | 1020.3 |
| 20260831160526 | 83 | 236 | 1.7 | 7.0 | 0.00 | 0.00 | 0.00 | 63 | 1020.3 |
| 20260831160049 | 83 | 178 | 4.3 | 7.0 | 0.00 | 0.00 | 0.00 | 63 | 1020.2 |
| 20260831155525 | 83 | 233 | 3.5 | 7.0 | 0.00 | 0.00 | 0.00 | 62 | 1020.2 |
| 20260831155025 | 83 | 218 | 1.7 | 7.0 | 0.00 | 0.00 | 0.00 | 62 | 1020.1 |
| 20260831154543 | 84 | 192 | 1.7 | 5.2 | 0.00 | 0.00 | 0.00 | 63 | 1020.3 |
| 20260831154043 | 84 | 163 | 1.7 | 7.0 | 0.00 | 0.00 | 0.00 | 61 | 1020.4 |
| 20260831153540 | 85 | 197 | 1.7 | 7.0 | 0.00 | 0.00 | 0.00 | 61 | 1020.2 |